This is the latest recevied weather packets stored in our database for station/object K2YYD-2. If no packets are shown the sender has not sent any weather packets the latest 10 day(s).
| Time | Temp. | Humidity | Pressure | Rain* | Wind** | Luminosity | Snow |
|---|---|---|---|---|---|---|---|
| 1778223286 | 9.44° C | 69% | 1007.4 hPa | 0 mm | - | 0 W/m² | - |
| 1778223167 | 10° C | 68% | 1007.4 hPa | 0 mm | - | 0 W/m² | - |
| 1778223047 | 10° C | 66% | 1007.4 hPa | 0 mm | - | 0 W/m² | - |
| 1778222924 | 10° C | 67% | 1007.3 hPa | 0 mm | - | 0 W/m² | - |
| 1778222803 | 10° C | 68% | 1007.3 hPa | 0 mm | - | 0 W/m² | - |
| 1778222681 | 10° C | 68% | 1007.3 hPa | 0 mm | - | 0 W/m² | - |
| 1778222562 | 9.44° C | 68% | 1007.3 hPa | 0 mm | - | 0 W/m² | - |
| 1778222442 | 9.44° C | 68% | 1007.3 hPa | 0 mm | - | 0 W/m² | - |
| 1778222321 | 9.44° C | 69% | 1007.3 hPa | 0 mm | - | 0 W/m² | - |
| 1778222201 | 9.44° C | 70% | 1007.2 hPa | 0 mm | - | 0 W/m² | - |
| 1778222080 | 9.44° C | 72% | 1007.2 hPa | 0 mm | - | 0 W/m² | - |
| 1778221963 | 8.89° C | 75% | 1007.2 hPa | 0 mm | - | 0 W/m² | - |
| 1778221842 | 8.89° C | 77% | 1007.3 hPa | 0 mm | - | 0 W/m² | - |
| 1778221723 | 8.89° C | 79% | 1007.3 hPa | 0 mm | - | 0 W/m² | - |
| 1778221602 | 8.33° C | 81% | 1007.2 hPa | 0 mm | - | 0 W/m² | - |
| 1778221480 | 8.33° C | 83% | 1007.1 hPa | 0 mm | - | 0 W/m² | - |
| 1778221360 | 8.33° C | 83% | 1006.8 hPa | 0 mm | - | 0 W/m² | - |
| 1778221240 | 8.33° C | 83% | 1006.5 hPa | 0 mm | - | 0 W/m² | - |
| 1778221119 | 8.33° C | 83% | 1006.3 hPa | 0 mm | - | 0 W/m² | - |
| 1778220997 | 8.33° C | 83% | 1006.1 hPa | 0 mm | - | 0 W/m² | - |
| 1778220876 | 8.33° C | 83% | 1006 hPa | 0 mm | - | 0 W/m² | - |
| 1778220756 | 8.33° C | 83% | 1005.9 hPa | 0 mm | - | 0 W/m² | - |
| 1778220636 | 8.33° C | 84% | 1005.8 hPa | 0 mm | - | 0 W/m² | - |
| 1778220517 | 8.33° C | 84% | 1005.8 hPa | 0 mm | - | 0 W/m² | - |
| 1778220396 | 8.33° C | 84% | 1005.7 hPa | 0 mm | - | 0 W/m² | - |
* Rain latest hour (hover to see other rain measurements)
** Current wind speed in m/s (hover to see current wind gust speed)